Weather in Brusyanskiy

Russia / Tula Oblast     53°59′51″N   38°05′27″E
temp.,
°C
wind,
m/s
gust,
m/s
humid.,
%
clouds,
%
prec.,
mm/h
press.,
hPa
HPBL,
m
16 april, fri
fri1600:00+11s1277100 0.0 101419
03:00+9se338781 0.0 101537
06:00+9se228691 0.0 101638
09:00+13e347142 0.0 1017373
12:00+16ese455598 0.0 10171216
15:00+16ese5755100 1.0 10161374
18:00+14se4772100 3.8 1016546
21:00+12ene4584100 7.8 1017125
17 april, sat
sat1700:00+10ese228612 0.5 101830
03:00+9ese338934 0.6 101844
06:00+8ne3493100 0.2 101964
09:00+11ene6886100 0.8 1018410
12:00+12e71079100 1.8 10171060
15:00+9s4790100 8.5 1018554
18:00+9sse4792100 1.1 1018547
21:00+7sse2491100 6.8 1019324
18 april, sun
sun1800:00+6se2394100 0.1 102078
03:00+5ese239657 0.1 102048
06:00+5ese249726 0.0 102087
09:00+8ese348584 0.1 1020532
12:00+8se238192 0.7 1020469
15:00+11se236671 1.5 1020959
18:00+9ene558083 1.4 1020566
21:00+7ene5891100 1.9 1022446
19 april, mon
mon1900:00+6ene4794100 0.1 1022325
03:00+6ene4795100 0.1 1022327
06:00+5ene589593 0.0 1022359
09:00+7e688898 0.0 1022507
12:00+10e6775100 0.1 10221012
15:00+10e5876100 0.3 10211072
18:00+10e81278100 0.1 1020983
21:00+8e81585100 0.4 1020798
20 april, tue
tue2000:00+8e91577100 0.7 1018805
03:00+7e91783100 0.7 1016800
06:00+6e101890100 2.3 1014722
09:00+6e112089100 3.8 1011868
12:00+7e132391100 4.1 1007994
15:00+7ese132392100 12.2 10051277
18:00+8ese122392100 3.6 10021258
21:00+10se111993100 4.8 10021100